TimePDT,TemperatureF,Dew PointF,Humidity,Sea Level PressureIn,VisibilityMPH,Wind Direction,Wind SpeedMPH,Gust SpeedMPH,PrecipitationIn,Events,Conditions,WindDirDegrees,DateUTC
12:52 AM,41.0,32.0,70,29.77,10.0,Calm,Calm,-,N/A,,Clear,0,2012-10-12 07:52:00
1:52 AM,39.0,30.9,73,29.77,10.0,North,5.8,-,N/A,,Clear,360,2012-10-12 08:52:00
2:52 AM,37.4,28.4,70,29.76,10.0,North,4.6,-,N/A,,Clear,360,2012-10-12 09:52:00
3:52 AM,37.9,28.9,70,29.76,10.0,ENE,3.5,-,N/A,,Clear,60,2012-10-12 10:52:00
4:52 AM,36.0,28.0,73,29.77,10.0,North,3.5,-,N/A,,Clear,360,2012-10-12 11:52:00
5:52 AM,36.0,28.0,73,29.78,10.0,Calm,Calm,-,N/A,,Clear,0,2012-10-12 12:52:00
6:52 AM,37.9,28.9,70,29.78,10.0,North,5.8,-,N/A,,Clear,10,2012-10-12 13:52:00
7:52 AM,39.9,30.0,68,29.79,10.0,North,6.9,-,N/A,,Clear,350,2012-10-12 14:52:00
8:52 AM,45.0,34.0,65,29.80,10.0,NE,3.5,-,N/A,,Partly Cloudy,40,2012-10-12 15:52:00
9:52 AM,48.2,37.4,66,29.80,8.0,Calm,Calm,-,N/A,,Partly Cloudy,0,2012-10-12 16:52:00
10:52 AM,55.0,39.0,55,29.82,8.0,South,3.5,-,N/A,,Scattered Clouds,190,2012-10-12 17:52:00
11:52 AM,57.2,39.2,51,29.81,8.0,South,6.9,-,N/A,,Mostly Cloudy,190,2012-10-12 18:52:00
12:52 PM,60.1,39.9,47,29.82,9.0,SW,4.6,-,N/A,,Mostly Cloudy,220,2012-10-12 19:52:00
1:52 PM,62.1,39.9,44,29.83,9.0,SSW,4.6,-,N/A,,Clear,200,2012-10-12 20:52:00
2:52 PM,64.0,39.9,41,29.83,10.0,South,5.8,-,N/A,,Mostly Cloudy,190,2012-10-12 21:52:00
3:52 PM,64.9,41.0,42,29.83,10.0,South,9.2,-,N/A,,Scattered Clouds,180,2012-10-12 22:52:00
4:52 PM,63.0,39.9,43,29.83,10.0,South,12.7,-,N/A,,Mostly Cloudy,170,2012-10-12 23:52:00
5:52 PM,62.1,42.1,48,29.85,10.0,South,9.2,-,N/A,,Overcast,180,2012-10-13 00:52:00
6:52 PM,60.1,44.1,55,29.85,10.0,SSE,6.9,-,N/A,,Mostly Cloudy,160,2012-10-13 01:52:00
7:52 PM,57.2,46.4,67,29.85,10.0,SSE,9.2,-,N/A,,Mostly Cloudy,160,2012-10-13 02:52:00
8:52 PM,55.9,48.0,75,29.88,10.0,SSE,8.1,-,N/A,,Scattered Clouds,160,2012-10-13 03:52:00
9:52 PM,57.2,48.2,72,29.88,10.0,South,11.5,-,N/A,,Clear,180,2012-10-13 04:52:00
10:52 PM,59.0,46.9,64,29.90,10.0,SW,9.2,-,N/A,,Mostly Cloudy,230,2012-10-13 05:52:00
11:52 PM,57.2,50.0,77,29.93,9.0,SW,5.8,-,N/A,Rain,Rain,230,2012-10-13 06:52:00